カタログに戻る

SL-14 R/B

運用中PO
NORAD 18153·ROCKET BODY·🇷🇺 Russia

打ち上げ Jul 1, 1987 から Plesetsk Cosmodrome

Loading…

次のパス (今後24時間)

TLE

最新Source: Space-Track

元期: Sep 14, 2026, 04:34 UTC

1 18153U 87055B   26257.19032002  .00000304  00000-0  31990-4 0  9995
2 18153  82.5022 171.3313 0022108 108.6555 251.7064 14.85758882 97929

AllMySatでSL-14 R/Bをリアルタイム追跡

Download on the App Store